Theta_e
304 305 308 306 307 307 307 305 304 306 306 305 304 305 302 304 304 303 303 303 305 306 308 311 311 310 309 310 311 314 313 313 313 315 314 313 317 318 319 320 319 314 314 316
307 306 305 307 306 306 305 305 305 307 305 303 304 302 302 303 303 302 302 303 304 305 306 306 307 311 309 309 312 313 314 315 315 317 315 313 316 317 318 318 312 317 320 317
305 305 307 306 306 305 305 304 304 302 304 301 302 302 301 301 303 302 302 302 303 303 305 304 305 307 306 308 310 312 314 312 315 316 317 316 318 318 317 318 318 318 316 316
305 306 307 306 305 304 304 303 299 301 301 297 301 301 301 301 299 302 303 302 303 302 299 303 304 305 305 305 308 311 314 315 313 313 313 316 317 318 319 319 318 318 317 316
306 307 306 304 304 304 303 300 300 299 297 300 301 302 299 301 300 302 302 301 302 302 300 302 302 304 304 306 309 309 311 314 314 314 313 314 315 317 318 318 318 319 317 314
306 305 304 303 304 303 301 300 301 302 299 294 298 296 299 300 301 301 302 301 301 301 302 302 302 302 304 305 307 310 307 309 313 314 312 314 316 315 317 316 317 318 318 317
305 305 304 304 303 302 301 300 301 298 298 298 298 299 299 300 300 300 302 302 301 302 302 302 303 303 303 304 304 306 305 306 305 307 314 317 314 312 314 317 317 317 316 315
305 304 304 303 302 301 300 300 300 299 297 295 298 300 300 299 301 299 301 303 303 304 306 301 302 304 306 304 304 305 304 306 305 307 314 313 311 309 314 316 317 315 315 315
304 304 303 303 301 299 300 299 300 299 297 295 298 296 299 294 289 290 299 304 304 304 303 304 297 298 297 299 307 305 305 306 307 309 316 318 313 308 314 313 318 315 315 315
301 300 300 299 299 300 298 299 299 298 297 297 299 296 297 299 296 292 299 301 303 304 301 304 301 305 303 301 308 313 310 309 309 310 315 310 307 307 314 318 316 313 314 314
300 299 299 299 298 298 298 298 298 297 297 297 299 299 299 300 300 297 299 300 301 302 303 301 298 301 304 305 306 309 312 314 313 313 314 315 304 312 315 312 306 308 310 313
300 299 299 299 299 298 296 298 299 298 298 295 296 298 300 301 302 301 301 300 300 302 302 302 304 307 306 306 308 307 311 312 311 313 312 304 308 305 309 307 307 308 308 310
300 300 300 298 297 297 298 298 298 298 296 294 295 295 298 299 301 302 302 302 303 304 304 303 305 307 302 307 306 308 305 297 308 308 301 298 301 304 304 305 307 307 308 309
298 298 298 298 297 298 298 298 298 298 297 290 294 294 295 297 298 300 300 301 300 301 301 300 303 305 303 304 303 304 289 291 295 302 296 298 300 298 299 303 304 306 307 308
296 296 296 297 297 297 297 298 298 298 298 290 294 295 296 295 295 296 297 299 299 298 299 299 302 301 301 299 293 283 280 280 288 295 285 286 294 289 296 300 301 302 305 305
294 295 296 297 297 297 298 297 297 297 297 297 288 295 295 296 296 296 296 296 296 296 298 300 300 296 295 297 285 278 275 275 275 280 278 280 286 288 291 297 299 300 302 302
293 294 295 296 296 296 296 294 295 297 297 297 292 287 295 294 295 296 296 296 296 296 298 298 295 283 284 282 279 273 271 270 273 276 278 286 284 283 287 290 295 297 298 298
293 293 294 295 295 295 294 295 295 296 296 296 283 288 290 293 295 295 296 296 296 295 294 288 285 275 274 271 270 269 268 269 275 275 275 276 279 283 288 291 290 293 294 293
292 292 293 293 294 294 294 293 294 294 295 286 286 284 286 292 293 294 295 295 295 292 288 281 278 271 267 268 267 266 266 265 266 274 275 276 276 279 284 287 288 289 288 289
290 290 291 291 290 291 293 294 294 293 290 289 285 286 287 290 290 288 291 294 293 292 285 277 272 270 268 266 265 265 265 266 267 269 273 275 275 273 278 282 284 283 284 285
289 290 291 290 289 290 292 288 283 282 276 279 280 283 285 289 285 284 292 289 291 291 286 281 274 271 269 265 265 266 266 266 267 268 269 270 271 272 273 276 279 281 282 283
289 290 290 289 287 287 281 270 275 274 274 275 273 278 281 286 289 287 289 289 288 286 280 279 275 271 266 265 265 266 266 267 268 268 269 270 272 273 274 275 277 279 281 281
289 289 286 282 277 276 273 271 272 271 272 272 272 272 279 286 289 287 283 284 285 281 277 274 271 267 266 265 265 267 267 267 268 268 269 270 271 273 274 275 276 277 279 280
286 281 274 270 267 265 263 265 265 272 272 271 270 271 273 281 282 281 282 282 281 279 278 276 269 265 265 265 265 266 267 268 268 269 270 270 272 273 274 275 275 277 278 279
280 278 269 267 270 271 270 270 270 270 270 270 271 273 277 271 275 275 279 278 273 273 274 268 265 265 265 266 266 266 267 268 269 269 270 271 272 272 273 275 276 277 278 278
276 272 269 270 269 268 269 268 268 269 269 270 271 272 274 273 268 272 269 275 276 271 262 265 266 266 266 266 266 267 267 268 269 270 271 271 272 273 274 274 276 277 278 279
274 271 270 269 268 267 267 266 267 268 269 274 274 277 274 271 270 267 264 268 265 265 265 265 266 266 266 267 267 267 268 269 270 271 271 272 272 273 273 275 276 276 277 278
Wind_Speed
49 54 71 68 69 68 57 21 5 46 51 11 7 8 11 8 6 5 4 5 6 6 7 11 15 11 10 21 23 18 15 5 10 14 6 2 14 12 19 10 19 3 1 11
49 70 63 71 71 67 51 15 22 41 46 5 9 6 6 4 4 4 3 4 3 3 7 5 6 8 2 15 15 11 14 8 9 3 3 4 7 15 19 19 2 18 12 10
61 64 67 69 68 55 46 19 7 8 19 9 17 16 8 5 7 4 6 6 6 5 3 4 6 5 3 3 17 24 15 6 10 13 5 5 13 18 18 23 13 22 19 19
60 64 67 67 57 46 45 11 3 7 8 4 12 11 12 8 5 4 7 4 4 7 4 3 5 4 1 3 7 3 6 12 14 14 8 3 11 19 25 24 34 17 26 21
60 63 63 61 49 44 24 10 10 11 7 20 16 8 8 14 6 7 5 7 6 5 7 9 7 7 6 5 5 8 6 7 8 16 13 12 12 16 16 26 29 25 27 18
57 60 57 57 46 33 12 16 27 22 9 4 7 5 9 13 8 2 14 12 7 8 14 10 9 8 5 3 6 5 4 2 7 19 11 14 14 28 24 24 27 30 27 38
41 49 51 49 39 21 19 34 25 11 3 7 5 7 4 11 15 7 6 21 8 7 15 13 13 18 17 15 11 13 5 6 2 8 9 17 23 15 29 31 31 29 29 17
46 46 53 43 31 22 23 30 23 9 4 5 6 12 6 10 14 7 10 13 18 11 8 3 3 3 3 10 17 18 17 8 4 5 12 4 7 9 26 22 32 29 29 31
47 44 42 41 34 26 33 23 18 12 8 6 9 7 9 5 4 3 3 8 12 13 3 3 6 5 7 5 5 21 18 18 8 9 12 9 13 7 26 11 20 32 34 26
49 41 38 36 32 26 24 23 18 17 10 7 15 6 9 9 6 3 5 6 6 14 4 4 3 4 5 4 5 7 7 12 19 16 12 8 5 7 33 15 14 15 39 35
43 42 39 35 32 25 25 22 17 14 9 12 9 10 7 12 13 5 10 5 3 4 8 4 4 5 7 4 5 6 9 6 10 9 7 14 11 24 22 11 3 5 9 31
32 32 30 23 19 14 9 18 15 13 10 8 11 11 10 12 17 15 20 6 6 10 5 5 3 4 3 5 4 4 5 8 4 11 7 2 21 9 4 1 2 3 9 14
25 23 21 17 14 14 15 20 18 15 14 11 6 4 11 11 12 16 8 9 6 6 6 2 3 7 3 5 6 3 5 5 3 3 2 6 11 10 11 7 2 3 7 10
27 25 23 20 18 16 15 19 16 11 11 5 3 3 4 4 10 13 15 9 6 8 7 5 3 3 4 2 2 1 1 8 5 1 5 1 16 21 16 7 4 4 6 9
25 23 22 21 19 18 16 17 13 8 5 5 5 7 4 3 1 7 13 13 11 6 4 3 3 3 2 2 3 5 9 5 4 3 10 9 5 19 12 4 8 7 12 15
24 24 23 22 22 21 20 8 9 8 8 7 3 3 5 7 2 4 8 12 11 7 5 3 4 1 6 2 3 8 13 13 11 9 22 16 15 8 10 7 9 7 13 18
22 21 20 17 12 10 4 7 5 6 5 4 3 2 2 7 2 0 2 8 7 8 4 3 2 9 8 3 3 19 21 21 13 17 19 3 13 9 9 10 12 11 15 18
24 23 23 21 20 20 19 13 7 6 6 6 3 1 1 7 2 1 1 3 4 3 1 4 3 6 7 5 15 20 23 22 4 17 13 10 9 5 7 11 11 14 19 19
19 18 17 14 11 8 7 10 11 11 7 5 4 2 2 8 6 3 2 1 0 3 3 3 4 4 6 7 17 19 20 18 23 18 9 10 12 9 9 11 12 14 17 16
9 6 5 6 4 5 5 3 4 5 8 7 2 6 2 6 7 5 5 4 1 2 3 6 4 3 5 15 14 15 18 16 17 17 14 17 13 14 11 11 10 12 15 16
4 5 5 5 4 3 3 4 7 8 5 11 9 6 3 8 2 2 3 2 2 1 2 3 2 2 7 19 17 15 15 14 11 9 9 8 8 7 6 10 12 12 14 14
10 10 9 4 5 5 6 2 4 5 0 11 6 7 6 5 4 2 3 0 2 1 2 3 2 2 13 19 19 16 15 13 10 9 7 7 6 6 8 11 13 14 15 16
7 4 5 9 9 10 6 4 4 3 10 11 12 4 7 5 2 2 3 4 1 6 4 2 1 6 16 18 17 13 11 9 8 8 9 10 11 10 11 14 15 16 18 18
7 8 8 4 5 2 3 3 3 4 6 18 17 8 3 5 4 2 5 1 3 3 3 2 2 10 14 13 13 12 11 11 10 11 12 12 12 13 13 14 14 15 17 17
7 7 4 3 1 3 2 4 6 4 9 11 6 6 3 3 3 3 2 5 4 2 1 1 4 9 11 12 11 11 11 11 11 11 11 11 11 12 13 14 14 15 15 14
6 10 3 8 2 5 6 8 5 9 11 3 2 1 3 4 2 5 2 1 1 2 1 1 5 7 9 11 10 10 10 10 11 11 11 10 10 11 12 10 10 11 10 9
6 6 12 7 2 4 7 9 10 11 5 2 2 4 1 2 4 3 3 1 1 1 1 2 4 6 9 9 9 9 9 10 10 10 9 8 9 9 7 7 9 9 8 8
Wind_Direction
183 167 154 160 157 152 147 131 112 159 159 153 173 175 143 134 145 110 95 92 95 138 169 190 194 201 197 199 185 195 199 231 228 219 175 212 242 216 201 207 215 223 188 250
147 162 157 153 156 160 144 106 114 157 159 145 165 135 142 123 126 128 133 116 137 168 148 149 178 193 294 180 180 186 181 220 232 208 266 206 229 223 207 223 123 223 226 246
147 150 152 155 153 152 143 121 131 115 160 138 157 158 167 108 111 105 105 115 91 97 135 45 157 168 267 177 199 210 194 199 226 227 225 147 209 201 222 211 225 235 228 247
148 151 155 152 150 149 137 115 94 139 160 176 156 146 156 127 125 101 126 47 147 140 113 118 182 183 256 271 197 153 222 231 215 237 260 313 230 219 215 209 224 218 237 233
152 151 152 152 145 153 147 115 138 101 88 125 136 146 179 165 145 135 181 134 161 155 163 183 176 159 189 193 191 176 190 256 219 238 238 228 237 241 234 222 228 231 247 251
153 153 159 160 153 157 129 119 133 130 130 91 132 181 152 185 124 64 159 141 148 198 217 206 230 230 248 224 174 162 130 306 251 257 224 235 237 230 220 231 235 219 229 234
155 156 164 166 166 162 142 134 137 106 123 120 144 133 102 157 183 132 158 165 159 224 239 245 262 262 256 242 226 196 195 205 125 282 245 220 241 222 217 217 223 224 236 246
159 153 162 161 150 151 155 140 151 113 103 100 112 143 115 143 168 171 159 183 195 175 126 79 305 239 242 236 230 212 205 174 180 246 260 291 264 221 197 198 231 224 229 238
160 168 172 172 158 148 160 146 147 115 108 213 139 125 152 148 150 36 177 158 184 184 155 163 201 214 203 250 243 206 195 208 197 227 244 235 247 178 192 183 252 229 227 236
149 137 133 129 135 152 157 117 131 128 104 140 155 165 175 161 154 131 133 160 156 193 172 216 198 236 187 207 207 165 180 209 208 210 239 278 238 186 142 164 241 200 211 221
126 128 131 134 137 130 153 122 128 122 101 136 159 147 142 165 173 147 160 108 205 160 193 189 214 224 219 180 226 177 175 216 202 207 188 247 174 148 164 204 89 106 193 219
141 146 145 153 161 154 137 128 135 126 107 128 172 176 172 190 191 187 167 189 173 169 187 211 214 222 220 193 240 182 203 195 210 206 201 274 177 339 191 20 204 232 240 235
142 152 159 163 158 158 159 141 133 123 104 93 98 159 205 197 196 197 173 205 184 194 217 257 231 235 166 203 224 87 135 343 226 172 19 341 37 35 24 10 42 238 238 217
129 132 136 139 143 142 142 145 138 126 114 110 149 138 155 190 215 211 221 220 201 216 233 229 257 244 210 270 23 89 18 321 332 48 11 22 45 19 0 25 64 103 116 176
116 120 119 115 120 123 136 131 116 123 118 128 143 132 101 353 269 229 227 233 243 238 226 203 237 260 211 95 100 34 358 8 348 39 6 316 351 341 10 59 80 105 136 143
103 106 114 116 120 127 121 82 84 111 118 117 111 112 57 11 297 279 251 226 235 224 225 227 221 121 336 115 86 40 2 344 333 316 316 301 316 335 27 64 86 117 142 145
100 103 106 110 127 149 89 99 128 110 109 97 96 14 63 8 20 248 214 214 222 221 249 236 78 18 28 54 73 347 343 333 330 341 357 61 1 338 24 78 101 130 137 143
101 101 103 100 97 94 83 85 100 94 84 72 97 243 59 8 357 348 339 213 208 210 338 45 41 29 44 60 343 343 344 341 315 355 14 336 314 344 68 99 120 140 131 132
100 101 99 92 77 56 67 83 71 61 68 98 71 104 212 352 19 318 314 316 102 32 50 45 48 20 47 343 338 340 346 349 325 336 1 22 34 37 81 111 120 122 119 132
97 91 69 65 39 84 110 51 22 34 36 50 64 344 349 350 1 355 7 356 342 62 57 83 55 75 125 3 348 344 343 341 353 4 359 1 16 25 50 88 107 117 120 125
76 60 67 96 65 79 62 62 43 350 28 12 354 358 318 14 45 282 39 290 324 73 36 93 63 40 356 343 350 358 355 359 6 10 358 348 348 7 52 90 106 116 121 126
84 101 104 57 38 60 73 5 1 40 24 340 328 322 333 328 322 28 337 143 33 50 13 75 52 18 344 349 357 4 6 10 17 27 34 44 56 74 85 94 97 105 112 115
61 53 56 10 353 43 58 346 338 18 350 4 342 322 342 327 296 301 53 51 36 116 42 83 68 340 347 353 358 8 14 23 34 47 57 63 71 80 88 93 100 105 110 108
55 38 27 60 356 36 176 190 217 313 312 326 322 282 321 331 357 320 82 290 37 61 53 360 8 344 349 355 1 8 21 35 44 51 58 64 71 76 83 87 92 96 100 102
67 43 49 59 29 47 10 321 300 283 310 326 321 283 297 336 45 19 30 37 59 70 203 18 340 348 354 360 7 16 28 37 46 54 63 66 70 71 76 80 81 83 85 87
63 51 63 10 55 355 5 346 341 334 334 325 265 283 54 28 83 49 14 38 118 168 159 332 341 355 4 7 14 21 26 37 46 51 55 59 65 65 62 68 75 77 77 76
52 56 32 35 8 299 333 335 329 339 349 26 326 53 182 321 55 28 350 54 187 107 277 325 359 12 15 18 22 24 30 39 46 52 55 57 57 54 52 56 56 52 50 43